Augusta Bush, GA

11:07 AM EDT on June 24, 2017 (GMT -0400)
Augusta Regional At Bush

Weather History for KAGS - December, 2011

Change the Weather History Date:

Thursday, December 22, 2011

  Actual Average Record
Temperature  
Mean Temperature 66 °F 46 °F  
Max Temperature 77 °F 58 °F 80 °F (2013)
Min Temperature 55 °F 34 °F 15 °F (1960)
Degree Days  
Heating Degree Days 0 19  
Month to date heating degree days 299 377  
Since 1 July heating degree days 737 799  
Cooling Degree Days 1 0  
Month to date cooling degree days 2 0  
Year to date cooling degree days 2515 2086  
Growing Degree Days 15 (Base 50)    
Moisture  
Dew Point 60 °F    
Average Humidity 80    
Maximum Humidity 100    
Minimum Humidity 60    
Precipitation  
Precipitation 0.01 in 0.11 in 2.65 in (2006)
Month to date precipitation 0.26 2.36  
Year to date precipitation 28.41 42.54  
Sea Level Pressure  
Sea Level Pressure 30.05 in    
Wind  
Wind Speed 6 mph (SSE)    
Max Wind Speed 17 mph    
Max Gust Speed 22 mph    
Visibility 7 miles    
Events Fog , Rain    
T = Trace of Precipitation, MM = Missing Value Source: NWS Daily Summary

Daily Weather History Graph

Daily Weather History Graph

Search for Another Location

Airport or City:

Trip Planner

Search our weather history database for the weather conditions in past years. The results will help you decide how hot, cold, wet, or windy it might be!

Date:

Astronomy

Dec. 22, 2011 Rise Set
Actual Time 7:28 AM EST 5:24 PM EST
Civil Twilight 7:00 AM EST 5:52 PM EST
Nautical Twilight 6:29 AM EST 6:23 PM EST
Astronomical Twilight 5:59 AM EST 6:53 PM EST
Moon 5:10 AM EST (12/22) 3:33 PM EST (12/22)
Length of Visible Light 10h 51m
Length of Day
9h 56m
Waning Crescent, 6% of the Moon is Illuminated
Dec 22
Waning Crescent
Dec 24
New
Jan 1
First Quarter
Jan 9
Full
Jan 16
Last Quarter

Hourly Weather History & Observations

Time (EST) Temp. Dew Point Humidity Pressure Visibility Wind Dir Wind Speed Gust Speed Precip Events Conditions
12:36 AM 59.0 °F 57.2 °F 94% 30.05 in 4.0 mi Calm Calm - N/A   Mostly Cloudy
12:48 AM 57.2 °F 57.2 °F 100% 30.05 in 1.8 mi Calm Calm - N/A   Scattered Clouds
12:53 AM 57.9 °F 57.9 °F 100% 30.05 in 1.0 mi South 3.5 mph - N/A   Scattered Clouds
1:00 AM 55.4 °F 55.4 °F 100% 30.05 in 0.5 mi SSE 3.5 mph - N/A Fog Fog
1:13 AM 57.2 °F 57.2 °F 100% 30.05 in 2.5 mi South 4.6 mph - N/A   Mostly Cloudy
1:20 AM 59.0 °F 57.2 °F 94% 30.05 in 9.0 mi South 3.5 mph - N/A   Mostly Cloudy
1:53 AM 61.0 °F 60.1 °F 97% 30.06 in 10.0 mi South 4.6 mph - N/A   Overcast
2:13 AM 60.8 °F 60.8 °F 100% 30.06 in 10.0 mi SSE 3.5 mph - N/A   Overcast
2:53 AM 61.0 °F 60.1 °F 97% 30.06 in 9.0 mi Calm Calm - N/A   Overcast
3:53 AM 60.1 °F 59.0 °F 96% 30.06 in 10.0 mi Calm Calm - N/A   Overcast
4:53 AM 60.1 °F 59.0 °F 96% 30.06 in 9.0 mi Calm Calm - N/A   Overcast
5:06 AM 60.8 °F 59.0 °F 94% 30.06 in 8.0 mi Calm Calm - N/A   Overcast
5:53 AM 61.0 °F 60.1 °F 97% 30.07 in 8.0 mi Calm Calm - N/A   Overcast
6:08 AM 60.8 °F 60.8 °F 100% 30.08 in 8.0 mi Calm Calm - N/A   Overcast
6:53 AM 60.1 °F 60.1 °F 100% 30.09 in 8.0 mi Calm Calm - 0.00 in   Overcast
7:20 AM 60.8 °F 60.8 °F 100% 30.09 in 8.0 mi Calm Calm - N/A   Overcast
7:53 AM 61.0 °F 60.1 °F 97% 30.10 in 7.0 mi Calm Calm - N/A   Overcast
8:53 AM 64.4 °F 62.6 °F 94% 30.09 in 10.0 mi SE 6.9 mph - N/A   Overcast
9:21 AM 62.6 °F 60.8 °F 94% 30.10 in 2.5 mi SSE 5.8 mph - 0.00 in Rain Light Rain
9:30 AM 62.6 °F 62.6 °F 100% 30.10 in 3.0 mi SE 6.9 mph - 0.00 in Rain Light Rain
9:33 AM 62.6 °F 62.6 °F 100% 30.10 in 5.0 mi SSE 6.9 mph - 0.00 in Rain Light Rain
9:43 AM 62.6 °F 62.6 °F 100% 30.10 in 1.8 mi SE 5.8 mph - 0.00 in Rain Light Rain
9:51 AM 62.6 °F 62.6 °F 100% 30.10 in 3.0 mi SSE 5.8 mph - 0.01 in Rain Light Rain
9:53 AM 62.6 °F 62.6 °F 100% 30.10 in 4.0 mi SSE 5.8 mph - N/A Rain Light Rain
10:53 AM 64.0 °F 63.0 °F 96% 30.10 in 4.0 mi ESE 3.5 mph - 0.00 in   Overcast
11:00 AM 64.4 °F 62.6 °F 94% 30.10 in 8.0 mi ESE 3.5 mph - N/A   Overcast
11:53 AM 66.9 °F 64.9 °F 93% 30.09 in 9.0 mi South 3.5 mph - N/A   Overcast
12:02 PM 68.0 °F 64.4 °F 88% 30.08 in 10.0 mi South 3.5 mph - N/A   Overcast
12:53 PM 70.0 °F 64.9 °F 84% 30.05 in 10.0 mi South 6.9 mph - N/A   Overcast
1:53 PM 72.0 °F 64.9 °F 78% 30.01 in 10.0 mi South 12.7 mph - N/A   Mostly Cloudy
2:53 PM 75.2 °F 62.6 °F 65% 29.97 in 10.0 mi South 12.7 mph - N/A   Clear
3:53 PM 75.9 °F 61.0 °F 60% 29.96 in 10.0 mi South 13.8 mph 20.7 mph N/A   Clear
4:53 PM 73.9 °F 59.0 °F 59% 29.96 in 10.0 mi South 6.9 mph - N/A   Scattered Clouds
5:53 PM 70.0 °F 59.0 °F 68% 29.95 in 10.0 mi SSE 4.6 mph - N/A   Clear
6:53 PM 66.9 °F 57.9 °F 73% 29.97 in 10.0 mi South 6.9 mph - N/A   Partly Cloudy
7:53 PM 70.0 °F 57.0 °F 63% 29.97 in 10.0 mi South 11.5 mph - N/A   Mostly Cloudy
8:53 PM 69.8 °F 55.4 °F 60% 29.99 in 10.0 mi South 8.1 mph - N/A   Mostly Cloudy
9:53 PM 69.8 °F 57.2 °F 64% 30.03 in 10.0 mi SW 3.5 mph - N/A Rain Light Rain
10:53 PM 70.0 °F 57.0 °F 63% 30.01 in 10.0 mi SSW 10.4 mph - N/A   Overcast
11:53 PM 66.9 °F 60.1 °F 79% 29.97 in 10.0 mi South 11.5 mph 19.6 mph 0.00 in Rain Light Rain